Location: Quebec
(46.8000°N, 71.2500°W)
Time: 04:21:01
(UTC-04:00)

Tiangong 2 - Pass Details

Date: 13 October 2017
Orbit: 388 x 391 km, 42.8° (Epoch: 21 October)

Event Time Altitude Azimuth Distance (km) Brightness Sun altitude
Exits shadow 04:21:12 12° 111° (ESE) 1,282 4.3 -27.7°
Drops below altitude 10° 04:21:38 10° 106° (ESE) 1,421 4.6 -27.6°
Sets 04:23:58 0° 91° (E) 2,279 6.1 -27.2°
